Fort Myers, FL

2:34 PM EST on February 09, 2016 (GMT -0500)
Southwest Florida International

Weather History for KRSW - June, 2013

Change the Weather History Date:

Friday, June 28, 2013

  Actual Average Record
Temperature  
Mean Temperature 80 °F -  
Max Temperature 88 °F 90 °F - (-1)
Min Temperature 72 °F 74 °F - (-1)
Cooling Degree Days 14    
Growing Degree Days 30 (Base 50)    
Moisture  
Dew Point 72 °F    
Average Humidity 79    
Maximum Humidity 100    
Minimum Humidity 57    
Precipitation  
Precipitation 0.00 in - - ()
Sea Level Pressure  
Sea Level Pressure 29.94 in    
Wind  
Wind Speed 3 mph (WSW)    
Max Wind Speed 12 mph    
Max Gust Speed 20 mph    
Visibility 10 miles    
Events Thunderstorm    
Averages and records for this station are not official NWS values.
T = Trace of Precipitation, MM = Missing Value Source: NWS Daily Summary

Daily Weather History Graph

Daily Weather History Graph

Search for Another Location

Airport or City:

Trip Planner

Search our weather history database for the weather conditions in past years. The results will help you decide how hot, cold, wet, or windy it might be!

Date:

Astronomy

Jun. 28, 2013 Rise Set
Actual Time 6:36 AM EDT 8:24 PM EDT
Civil Twilight 6:10 AM EDT 8:50 PM EDT
Nautical Twilight 5:38 AM EDT 9:21 PM EDT
Astronomical Twilight 5:05 AM EDT 9:55 PM EDT
Moon No Moon Rise 12:07 PM EDT (6/28)
Length of Visible Light 14h 39m
Length of Day
13h 47m
Waning Gibbous, 66% of the Moon is Illuminated
Jun 28
Waning Gibbous
Jun 30
Last Quarter
Jul 8
New
Jul 15
First Quarter
Jul 22
Full

Hourly Weather History & Observations

Time (EDT) Temp. Heat Index Dew Point Humidity Pressure Visibility Wind Dir Wind Speed Gust Speed Precip Events Conditions
12:53 AM 73.0 °F - 73.0 °F 100% 29.99 in 10.0 mi Calm Calm - N/A   Clear
1:53 AM 73.0 °F - 72.0 °F 96% 29.99 in 10.0 mi Calm Calm - N/A   Clear
2:53 AM 72.0 °F - 71.1 °F 97% 29.98 in 10.0 mi Calm Calm - N/A   Clear
3:53 AM 73.0 °F - 72.0 °F 96% 29.97 in 10.0 mi Calm Calm - N/A   Clear
4:53 AM 72.0 °F - 72.0 °F 100% 29.97 in 10.0 mi Calm Calm - N/A   Clear
5:53 AM 72.0 °F - 72.0 °F 100% 29.96 in 10.0 mi SSE 3.5 mph - N/A   Clear
6:40 AM 73.4 °F - 73.4 °F 100% 29.97 in 10.0 mi South 4.6 mph - N/A   Scattered Clouds
6:53 AM 73.9 °F - 73.0 °F 97% 29.97 in 10.0 mi SW 4.6 mph - N/A   Scattered Clouds
7:53 AM 75.0 °F - 73.9 °F 96% 29.97 in 10.0 mi Calm Calm - N/A   Clear
8:53 AM 79.0 °F - 73.0 °F 82% 29.99 in 10.0 mi Calm Calm - N/A   Clear
9:53 AM 81.0 °F 86.2 °F 73.9 °F 79% 29.98 in 10.0 mi SSE 3.5 mph - N/A   Clear
10:53 AM 82.9 °F 88.8 °F 73.0 °F 72% 29.97 in 10.0 mi SW 5.8 mph - N/A   Partly Cloudy
11:53 AM 86.0 °F 91.5 °F 71.1 °F 61% 29.96 in 10.0 mi West 4.6 mph - N/A   Partly Cloudy
12:53 PM 86.0 °F 90.1 °F 69.1 °F 57% 29.94 in 10.0 mi West 8.1 mph - N/A   Partly Cloudy
1:53 PM 87.1 °F 93.6 °F 72.0 °F 61% 29.93 in 10.0 mi SW 9.2 mph - N/A Thunderstorm Clear
2:12 PM 87.8 °F 93.8 °F 71.6 °F 58% 29.94 in 10.0 mi West 9.2 mph 16.1 mph N/A   Partly Cloudy
2:53 PM 87.1 °F 92.8 °F 71.1 °F 59% 29.91 in 10.0 mi WSW 11.5 mph 18.4 mph N/A   Clear
3:53 PM 87.1 °F 92.8 °F 71.1 °F 59% 29.89 in 10.0 mi WSW 9.2 mph 18.4 mph N/A   Clear
4:53 PM 87.1 °F 92.0 °F 70.0 °F 57% 29.88 in 10.0 mi West 9.2 mph - N/A   Clear
5:53 PM 86.0 °F 92.2 °F 72.0 °F 63% 29.87 in 10.0 mi WSW 9.2 mph 19.6 mph N/A   Scattered Clouds
6:53 PM 84.9 °F 90.1 °F 71.1 °F 63% 29.89 in 10.0 mi West 8.1 mph - N/A   Scattered Clouds
7:53 PM 82.9 °F 87.5 °F 71.1 °F 67% 29.89 in 10.0 mi West 6.9 mph - N/A   Clear
8:53 PM 81.0 °F 86.2 °F 73.9 °F 79% 29.91 in 10.0 mi SW 5.8 mph - N/A   Clear
9:53 PM 80.1 °F 84.5 °F 73.9 °F 81% 29.92 in 10.0 mi SW 5.8 mph - N/A   Clear
10:53 PM 79.0 °F - 73.9 °F 84% 29.92 in 10.0 mi SW 3.5 mph - N/A   Clear
11:53 PM 78.1 °F - 73.0 °F 84% 29.92 in 10.0 mi Calm Calm - N/A   Clear